When you browse on this site, cookies collect data to enhance your experience and personalize the content and advertising you see.
Visit our Privacy Policy to learn more. By continuing to use the site, you agree to this use of cookies and data.
  • In Sweden
  • List of Countries
  • For 7 days
  • Water Temperature
  • Weather Map
  • Weather Widgets
  • user-avatar
    Login

    Hourly Weather Chico

    Today, 22 August, Thursday

    Time Temperature Precipitation Wind Pressure Humidity
    00:00 +26°C° 0 mm 1 mps 753 mmHg 47%
    01:00 +25°C° 0 mm 1 mps 752 mmHg 49%
    02:00 +25°C° 0 mm 1 mps 752 mmHg 52%
    03:00 +24°C° 0 mm 1 mps 752 mmHg 55%
    04:00 +23°C° 0 mm 1 mps 752 mmHg 58%
    05:00 +24°C° 0 mm 2 mps 752 mmHg 54%
    06:00 +25°C° 0 mm 2 mps 752 mmHg 51%
    07:00 +26°C° 0 mm 2 mps 752 mmHg 48%
    08:00 +29°C° 0 mm 2 mps 752 mmHg 42%
    09:00 +32°C° 0 mm 2 mps 751 mmHg 35%
    10:00 +35°C° 0 mm 3 mps 751 mmHg 29%
    11:00 +37°C° 0 mm 3 mps 750 mmHg 25%
    12:00 +39°C° 0 mm 3 mps 750 mmHg 21%
    13:00 +42°C° 0 mm 3 mps 749 mmHg 17%
    14:00 +41°C° 0 mm 2 mps 749 mmHg 15%
    15:00 +42°C° 0 mm 2 mps 748 mmHg 12%
    16:00 +43°C° 0 mm 2 mps 748 mmHg 9%
    17:00 +39°C° 0 mm 1 mps 748 mmHg 11%
    18:00 +35°C° 0 mm 1 mps 748 mmHg 13%
    19:00 +32°C° 0 mm 1 mps 748 mmHg 15%
    20:00 +31°C° 0 mm 1 mps 749 mmHg 18%
    21:00 +29°C° 0 mm 2 mps 749 mmHg 21%
    22:00 +28°C° 0 mm 2 mps 749 mmHg 23%
    23:00 +26°C° 0 mm 2 mps 750 mmHg 26%

    Tomorrow, 23 August, Friday

    Time Temperature Precipitation Wind Pressure Humidity
    00:00 +25°C° 0 mm 1 mps 750 mmHg 29%
    01:00 +24°C° 0 mm 1 mps 750 mmHg 32%
    02:00 +24°C° 0 mm 1 mps 750 mmHg 33%
    03:00 +23°C° 0 mm 1 mps 750 mmHg 34%
    04:00 +23°C° 0 mm 1 mps 750 mmHg 35%
    05:00 +24°C° 0 mm 1 mps 750 mmHg 33%
    06:00 +25°C° 0 mm 1 mps 751 mmHg 31%
    07:00 +26°C° 0 mm 1 mps 751 mmHg 28%
    08:00 +30°C° 0 mm 1 mps 751 mmHg 25%
    09:00 +33°C° 0 mm 1 mps 750 mmHg 22%
    10:00 +37°C° 0 mm 1 mps 750 mmHg 18%
    11:00 +39°C° 0 mm 2 mps 750 mmHg 17%
    12:00 +41°C° 0 mm 2 mps 750 mmHg 15%
    13:00 +43°C° 0 mm 2 mps 750 mmHg 13%
    14:00 +44°C° 0 mm 3 mps 749 mmHg 12%
    15:00 +45°C° 0 mm 3 mps 749 mmHg 12%
    16:00 +45°C° 0 mm 3 mps 748 mmHg 11%
    17:00 +42°C° 0 mm 3 mps 749 mmHg 15%
    18:00 +38°C° 0 mm 3 mps 749 mmHg 18%
    19:00 +36°C° 0 mm 3 mps 750 mmHg 21%
    20:00 +34°C° 0 mm 3 mps 750 mmHg 25%
    21:00 +31°C° 0 mm 3 mps 751 mmHg 29%
    22:00 +29°C° 0 mm 3 mps 751 mmHg 34%
    23:00 +28°C° 0 mm 2 mps 752 mmHg 37%

    Day after tomorrow, 24 August, Saturday

    Time Temperature Precipitation Wind Pressure Humidity
    00:00 +26°C° 0 mm 2 mps 752 mmHg 41%
    01:00 +25°C° 0 mm 2 mps 752 mmHg 44%
    02:00 +24°C° 0 mm 1 mps 752 mmHg 48%
    03:00 +23°C° 0 mm 1 mps 752 mmHg 52%
    04:00 +22°C° 0 mm 1 mps 752 mmHg 55%
    05:00 +23°C° 0 mm 1 mps 753 mmHg 52%
    06:00 +24°C° 0 mm 1 mps 753 mmHg 49%
    07:00 +25°C° 0 mm 1 mps 754 mmHg 46%
    08:00 +28°C° 0 mm 2 mps 754 mmHg 40%
    09:00 +31°C° 0 mm 2 mps 754 mmHg 33%
    10:00 +35°C° 0 mm 2 mps 753 mmHg 26%
    11:00 +37°C° 0 mm 2 mps 753 mmHg 23%
    12:00 +39°C° 0 mm 3 mps 753 mmHg 20%
    13:00 +42°C° 0 mm 3 mps 753 mmHg 17%
    14:00 +43°C° 0 mm 3 mps 752 mmHg 16%
    15:00 +43°C° 0 mm 3 mps 752 mmHg 15%
    16:00 +44°C° 0 mm 3 mps 752 mmHg 13%
    17:00 +42°C° 0 mm 3 mps 752 mmHg 16%
    18:00 +38°C° 0 mm 3 mps 753 mmHg 18%
    19:00 +36°C° 0 mm 3 mps 753 mmHg 21%
    20:00 +34°C° 0 mm 3 mps 754 mmHg 24%
    21:00 +31°C° 0 mm 3 mps 754 mmHg 28%
    22:00 +29°C° 0 mm 4 mps 755 mmHg 31%
    23:00 +27°C° 0 mm 3 mps 755 mmHg 34%

    25 August, Sunday

    Time Temperature Precipitation Wind Pressure Humidity
    00:00 +26°C° 0 mm 2 mps 755 mmHg 37%
    01:00 +24°C° 0 mm 2 mps 755 mmHg 41%
    02:00 +23°C° 0 mm 1 mps 755 mmHg 44%
    03:00 +22°C° 0 mm 1 mps 755 mmHg 47%
    04:00 +21°C° 0 mm 1 mps 755 mmHg 50%
    05:00 +22°C° 0 mm 1 mps 755 mmHg 46%
    06:00 +24°C° 0 mm 1 mps 756 mmHg 42%
    07:00 +23°C° 0 mm 0 mps 756 mmHg 38%
    08:00 +29°C° 0 mm 1 mps 756 mmHg 32%
    09:00 +32°C° 0 mm 1 mps 755 mmHg 26%
    10:00 +35°C° 0 mm 1 mps 755 mmHg 20%
    11:00 +38°C° 0 mm 2 mps 755 mmHg 17%
    12:00 +40°C° 0 mm 3 mps 754 mmHg 14%
    13:00 +43°C° 0 mm 3 mps 754 mmHg 11%
    14:00 +43°C° 0 mm 3 mps 753 mmHg 11%
    15:00 +44°C° 0 mm 3 mps 753 mmHg 10%
    16:00 +44°C° 0 mm 3 mps 753 mmHg 10%
    17:00 +40°C° 0 mm 3 mps 753 mmHg 13%
    18:00 +38°C° 0 mm 3 mps 753 mmHg 15%
    19:00 +35°C° 0 mm 3 mps 754 mmHg 17%
    20:00 +33°C° 0 mm 3 mps 754 mmHg 20%
    21:00 +30°C° 0 mm 3 mps 754 mmHg 23%
    22:00 +28°C° 0 mm 3 mps 755 mmHg 26%
    23:00 +27°C° 0 mm 2 mps 755 mmHg 28%

    26 August, Monday

    Time Temperature Precipitation Wind Pressure Humidity
    00:00 +25°C° 0 mm 2 mps 754 mmHg 30%
    01:00 +24°C° 0 mm 1 mps 754 mmHg 33%
    02:00 +24°C° 0 mm 1 mps 754 mmHg 34%
    03:00 +23°C° 0 mm 1 mps 754 mmHg 35%
    04:00 +22°C° 0 mm 1 mps 754 mmHg 37%
    05:00 +24°C° 0 mm 1 mps 755 mmHg 34%
    06:00 +25°C° 0 mm 1 mps 755 mmHg 31%
    07:00 +27°C° 0 mm 1 mps 755 mmHg 28%
    08:00 +30°C° 0 mm 1 mps 754 mmHg 24%
    09:00 +34°C° 0 mm 2 mps 754 mmHg 20%
    10:00 +38°C° 0 mm 2 mps 754 mmHg 15%
    11:00 +40°C° 0 mm 2 mps 753 mmHg 13%
    12:00 +43°C° 0 mm 2 mps 753 mmHg 11%
    13:00 +46°C° 0 mm 2 mps 752 mmHg 9%
    14:00 +46°C° 0 mm 2 mps 752 mmHg 8%
    15:00 +46°C° 0 mm 2 mps 751 mmHg 8%
    16:00 +46°C° 0 mm 2 mps 751 mmHg 7%
    17:00 +42°C° 0 mm 2 mps 751 mmHg 9%
    18:00 +39°C° 0 mm 2 mps 751 mmHg 10%
    19:00 +36°C° 0 mm 2 mps 752 mmHg 12%
    20:00 +34°C° 0 mm 2 mps 752 mmHg 14%
    21:00 +32°C° 0 mm 2 mps 752 mmHg 16%
    22:00 +30°C° 0 mm 3 mps 753 mmHg 18%
    23:00 +28°C° 0 mm 2 mps 753 mmHg 21%

    27 August, Tuesday

    Time Temperature Precipitation Wind Pressure Humidity
    00:00 +27°C° 0 mm 2 mps 753 mmHg 23%
    01:00 +26°C° 0 mm 1 mps 752 mmHg 25%
    02:00 +25°C° 0 mm 1 mps 752 mmHg 27%
    03:00 +24°C° 0 mm 1 mps 753 mmHg 28%
    04:00 +23°C° 0 mm 1 mps 753 mmHg 30%
    05:00 +25°C° 0 mm 1 mps 753 mmHg 28%
    06:00 +26°C° 0 mm 1 mps 753 mmHg 26%
    07:00 +28°C° 0 mm 1 mps 753 mmHg 24%
    08:00 +31°C° 0 mm 1 mps 752 mmHg 20%
    09:00 +34°C° 0 mm 1 mps 752 mmHg 16%
    10:00 +39°C° 0 mm 1 mps 752 mmHg 13%
    11:00 +41°C° 0 mm 2 mps 751 mmHg 11%
    12:00 +45°C° 0 mm 2 mps 751 mmHg 10%
    13:00 +47°C° 0 mm 2 mps 751 mmHg 8%
    14:00 +48°C° 0 mm 2 mps 750 mmHg 8%
    15:00 +48°C° 0 mm 2 mps 750 mmHg 7%
    16:00 +48°C° 0 mm 2 mps 750 mmHg 7%
    17:00 +45°C° 0 mm 2 mps 750 mmHg 9%
    18:00 +41°C° 0 mm 2 mps 750 mmHg 11%
    19:00 +38°C° 0 mm 3 mps 751 mmHg 13%
    20:00 +36°C° 0 mm 3 mps 751 mmHg 15%
    21:00 +34°C° 0 mm 3 mps 752 mmHg 17%
    22:00 +33°C° 0 mm 3 mps 752 mmHg 19%
    23:00 +30°C° 0 mm 2 mps 752 mmHg 22%
    Show more